sat.trackr.live / text

‹ back to catalog

YUNHAI-2 02A

NORAD 59280 · 2024-052A

PAYLOAD ACTIVE UNKNOWN

§ Identity

Operator
Country
PRC
Launch date
2024-03-21
Launch site
JSC
Launch vehicle
Mass (kg)
RCS (m²)

External: N2YO · Heavens-Above · Gunter

§ Orbital elements

Epoch: 2026-09-22T22:31:21.450144Z

Period
100.84 min
Inclination
50.0108°
Eccentricity
0.0011823
Mean motion
14.27988209 rev/d
Perigee alt
790.0 km
Apogee alt
806.9 km
Semi-major
7,176.6 km
B*
6.7763e-5
RAAN
28.4549°
Arg perigee
129.4457°
Mean anomaly
230.7506°
Rev number
11,219

§ Raw data

YUNHAI-2 02A1 59280U 24052A   26265.93844271  .00000008  00000+0  67763-4 0  99962 59280  50.0108  28.4549 0011823 129.4457 230.7506 14.27988209112196

JSON: /api/v1/satellites/59280 · /tle

For live sub-satellite position, see the globe view (requires WebGL).

§ Visibility from observer

Set your observer location to see the next 7 days of passes ≥ 10°. The values pass through the URL so the page stays shareable.

No JS? Fill the form by hand. The geolocation button needs JavaScript.